Regional Weather Roundup
Issued by NWS Kansas City/Pleasant Hill, MO

Home | Current Version | Previous Version | Text Only | Print | Product List | Glossary On
Versions: 1 2 3 4 5 6 7 8 9 10 11 12 13 14 15 16 17 18 19 20 21 22 23 24 25 26 27 28 29 30 31 32 33 34 35 36 37 38 39 40 41 42 43 44 45 46 47 48 49 50
000
ASUS43 KEAX 050610
RWREAX

WEATHER ROUNDUP FOR EASTERN KANSAS AND NORTHWEST MISSOURI
NATIONAL WEATHER SERVICE KANSAS CITY/PLEASANT HILL MO
100 AM CDT SAT SEP 05 2015

KSZ040-057-103>105-MOZ028-029-037-043-050700-
...KANSAS CITY METROPOLITAN AREA...

CITY           SKY/WX    TMP DP  RH WIND       PRES   REMARKS
K.C. INTL      CLEAR     74  68  81 SE7       29.99R
6HR MIN TEMP:  73; 6HR MAX TEMP:  86;

K.C. DOWNTOWN  CLEAR     80  69  69 S6        29.98R
6HR MIN TEMP:  79; 6HR MAX TEMP:  89;

LEES SUMMIT    CLEAR     78  68  71 S7        30.00R
6HR MIN TEMP:  78; 6HR MAX TEMP:  87;

OLATHE - IXD   CLEAR     74  69  85 SE6       30.00R
6HR MIN TEMP:  73; 6HR MAX TEMP:  84;

OLATHE - OJC   CLEAR     73  68  84 SE6       29.99S
6HR MIN TEMP:  73; 6HR MAX TEMP:  84;

LAWRENCE       CLEAR     73  69  87 E6        29.97S

$$

MOZ001>008-011>017-020>025-030>033-038>040-044>046-053-054-050700-
...NORTHERN AND CENTRAL MISSOURI...

CITY           SKY/WX    TMP DP  RH WIND       PRES   REMARKS
ST. JOSEPH     CLEAR     73  69  87 S7        29.97S
6HR MIN TEMP:  72; 6HR MAX TEMP:  85;

MOSBY          CLEAR     72  70  94 CALM      29.99S
WARRENSBURG    CLEAR     73  68  83 S5        30.00S
WHITEMAN AFB   CLEAR     76  69  80 S7        30.00R
6HR MIN TEMP:  75; 6HR MAX TEMP:  87;

CLINTON        CLEAR     75  72  88 CALM      30.01S
SEDALIA        CLEAR     74  69  85 S8        30.03S
6HR MIN TEMP:  74; 6HR MAX TEMP:  88;

WARSAW         NOT AVBL
CHILLICOTHE      N/A     74  70  87 CALM      30.01S
6HR MIN TEMP:  74; 6HR MAX TEMP:  88;

KIRKSVILLE     CLEAR     73  67  81 S6        30.03S
6HR MIN TEMP:  72; 6HR MAX TEMP:  85;


$$

MOZ041-047>049-056>058-063>065-088>090-097-050700-
...EASTERN AND SOUTHERN MISSOURI...

CITY           SKY/WX    TMP DP  RH WIND       PRES   REMARKS
ST. LOUIS INTL CLEAR     79  68  69 SE5       30.05S
6HR MIN TEMP:  79; 6HR MAX TEMP:  90;

SPIRIT OF STL  CLEAR     71  70  96 CALM      30.03S
COLUMBIA       CLEAR     75  70  84 SE7       30.04R
JEFFERSON CITY CLEAR     74  71  91 SE5       30.03R
ROLLA          CLEAR     74  68  81 SE7       30.05S
OSAGE BEACH    CLEAR     73  68  83 CALM      30.04S
SPRINGFIELD    CLEAR     77  67  71 SE10      30.03S
BRANSON        CLEAR     75  66  73 SE5       30.06S
JOPLIN         CLEAR     78  69  73 SE7       30.00S
WEST PLAINS    CLEAR     71  68  90 CALM      30.09S

$$

IAZ060-094-KSZ022-034>040-054-083-096-NEZ052-066-093-050700-
...KANSAS...SOUTHEAST NEBRASKA AND IOWA...

CITY           SKY/WX    TMP DP  RH WIND       PRES   REMARKS
TOPEKA         CLEAR     78  69  73 S6        29.96S
6HR MIN TEMP:  77; 6HR MAX TEMP:  87;

MANHATTAN      CLEAR     79  70  74 S10G20    29.93S
EMPORIA        CLEAR     74  69  85 S9        29.98R
CHANUTE        CLEAR     74  70  87 SE6       29.98S
WICHITA        CLEAR     77  68  73 SE10      29.95S
OMAHA          MOCLDY    78  68  71 S15       29.92S
LINCOLN        CLEAR     78  68  71 S13       29.91R
FALLS CITY     CLEAR     75  69  81 S7        29.94S
LAMONI         PTCLDY    76  69  79 S6        29.99S
DES MOINES     CLOUDY    79  69  71 S7        29.96S

$$



USA.gov is the U.S. government's official web portal to all federal, state and local government web resources and services.